User: anonymous   Login
Location: Unspecified
(0.0000°N, 0.0000°E)
Time: 05:47:52
(UTC+02:00)
Language:

BREEZE-M DEB (TANK) - Orbit

View from above orbital plane
View from above orbital plane
View from above satellite
View from above satellite

Ground track
Ground track

The orbit data is extracted from the following two-line orbital elements,

1 33374U 08044B   17285.92693818  .00000272  00000-0  16568-3 0  9995
2 33374  49.4312 200.7286 5421820 155.4591 245.0317  4.87158640159743
Epoch (UTC): 12 October 2017 22:14:47
Eccentricity: 0.5421820
inclination: 49.4312°
perigee height: 351 km
apogee height: 16290 km
right ascension of ascending node: 200.7286°
argument of perigee: 155.4591°
revolutions per day: 4.87158640
mean anomaly at epoch: 245.0317°
orbit number at epoch: 15974

The dashed part of the orbit path shows where the satellite is in the earth's shadow,  

DLR